Find Jilin-1 GaoFen 06A 15 xing

NORAD ID: 57026 Int'l Des: NNA 2023-085 Owner: CGSTL Country: CN Constellation: jilin-1 operational
LEOCIRCULARRETROGRADESSO

Current View

Loading 3D Globe...

About Jilin-1 GaoFen 06A 15 xing

Description loading...

Upcoming Passes

Passes for default location (London). Set your location on the main map for personalized predictions.

Altitude History

Loading altitude history...

Two-Line Element Set

1 57026U 23085Y 26149.57616901 .00018999 00000-0 56009-3 0 9994
2 57026 97.4950 262.6258 0006711 126.2885 233.8979 15.35043746163968
Epoch: May 29, 2026 • Age: 18 hours

Current Status

Altitude 459.9 km
Velocity 7.64 km/s
Sub-Earth Point 24.41°N, 83.28°E
Launch Date Jun 15, 2023
Age 2.9 years
Type earth observation

Technical Details

Classification Payload
Mass 42.00 kg
Dry Mass 42.00 kg
Total Mass 42.00 kg
Length 1.50 m
Diameter 1.00 m
Span 1.50 m
Shape Box
Manufacturer CGSTL
Bus Type JL-1
Phase Status In Orbit
Owner/State CGSTL/CN

Most Searched